sat.trackr.live / text

‹ back to catalog

STARLINK-34460

NORAD 66099 · 2025-236P

PAYLOAD ACTIVE UNKNOWN

§ Identity

Operator
Country
US
Launch date
2025-10-19
Launch site
AFWTR
Launch vehicle
Mass (kg)
RCS (m²)

Purposes: comms

External: N2YO · Heavens-Above · Gunter

§ Orbital elements

Epoch: 2026-09-20T06:23:49.008480Z

Period
93.85 min
Inclination
53.1584°
Eccentricity
0.0001131
Mean motion
15.34407857 rev/d
Perigee alt
461.9 km
Apogee alt
463.5 km
Semi-major
6,840.8 km
B*
5.0929e-4
RAAN
278.7730°
Arg perigee
126.6624°
Mean anomaly
233.4483°
Rev number
5,275

§ Raw data

STARLINK-344601 66099U 25236P   26263.26653945  .00016874  00000+0  50929-3 0  99902 66099  53.1584 278.7730 0001131 126.6624 233.4483 15.34407857 52755

JSON: /api/v1/satellites/66099 · /tle

For live sub-satellite position, see the globe view (requires WebGL).

§ Visibility from observer

Set your observer location to see the next 7 days of passes ≥ 10°. The values pass through the URL so the page stays shareable.

No JS? Fill the form by hand. The geolocation button needs JavaScript.